Regional Weather Roundup
Issued by NWS

Home | Current Version | Previous Version | Text Only | Print | Product List | Glossary Off
Versions: 1 2 3 4 5 6 7 8 9 10 11 12 13 14 15 16 17 18 19 20 21 22 23 24 25 26 27 28 29 30 31 32 33 34 35 36 37 38 39 40 41 42 43 44 45 46 47 48 49 50

000
ASUS45 KTFX 100704
RWRMT
MONTANA HOURLY WEATHER ROUNDUP
NATIONAL WEATHER SERVICE GREAT FALLS MT
104 AM MDT THU JUL 10 2014

NOTE: "FAIR" INDICATES FEW OR NO CLOUDS BELOW 12000 FEET WITH NO
SIGNIFICANT WEATHER AND/OR OBSTRUCTIONS TO VISIBILITY.

* THESE STATIONS ARE NOT UNDER NWS QUALITY CONTROL. THEY DO NOT
   REPORT WEATHER SUCH AS PRECIPITATION OR FOG.

MTZ001>007-043-100800-
WEST OF THE DIVIDE
CITY           SKY/WX    TMP DP  RH WIND       PRES   REMARKS
KALISPELL      CLEAR     55  52  90 CALM      29.82S
MISSOULA       CLEAR     72  50  46 E9        29.89R
BUTTE          PTCLDY    55  54  96 SE5       30.07S
MULLAN PASS    CLEAR     64  43  47 SW7       30.05S
* ESSEX        N/A      N/A N/A N/A N/A        N/A
* LINCOLN      N/A       66  46  49 SW3G8      N/A
* LOOKOUT PASS N/A       63  47  56 SE1        N/A
* POLSON       N/A       65  48  54 SE1        N/A
* RONAN APT    CLEAR     63  54  73 N/A        N/A
* SEELEY LAKE  N/A       59  50  72 NE2        N/A
* THOMP F APT  CLEAR     63  45  52 NW8G20     N/A
* YAAK HILL    N/A       63  50  63 NE1        N/A
$$

MTZ008-052>055-100800-
SOUTHWEST MONTANA
CITY           SKY/WX    TMP DP  RH WIND       PRES   REMARKS
BOZEMAN        CLOUDY    64  52  65 S5        29.99F
DILLON         CLOUDY    64  48  56 SW8       30.03F
W YELLOWSTONE  CLOUDY    55  55 100 CALM      30.14S
* THREE FORKS  CLOUDY    64  64 100 N/A        N/A
* BOULDER HILL N/A       63  43  48 S6         N/A
* MONIDA PASS  N/A       56  48  75 W8         N/A
* RAYNOLDS PAS N/A       58  36  44 SE1        N/A
* WHITEHALL    N/A       66  50  56 VRB4       N/A
* WISE RIVER   N/A       54  52  93 NW2G9      N/A
$$

MTZ009>010-012-014-046-048-049-054-100800-
EAST SLOPES AND CENTRAL MONTANA
CITY           SKY/WX    TMP DP  RH WIND       PRES   REMARKS
CUT BANK       CLEAR     66  46  49 SW17      29.81S
GREAT FALLS    PTCLDY    70  46  42 SW10      29.82R
HELENA         PTCLDY    70  48  46 NW6       29.90S
* CONRAD       PTCLDY    63  54  73 W6         N/A
* DEARBORN     N/A       76  46  35 SW3G8      N/A
* EAST GLACIER N/A       67  43  42 NW10       N/A
* MONARCH      N/A       67  37  33 S8         N/A
* PENDROY      N/A       67  46  47 NW11       N/A
* ROGERS PASS  N/A       68  42  39 SE7G13     N/A
* SAINT MARY   N/A       69  44  41 S4G11      N/A
* SWEET GRASS  N/A       70  46  42 W17G24     N/A
$$

MTZ011-013-016-021-035-040-045-047-050-051-100800-
NORTH CENTRAL MONTANA
CITY           SKY/WX    TMP DP  RH WIND       PRES   REMARKS
HAVRE          CLOUDY    70  52  53 SW7       29.71S
LEWISTOWN      CLOUDY    77  46  33 SW20      29.85F
* CHESTER      N/A       66  48  52 N1         N/A
* DENTON       N/A       74  47  38 SW11       N/A
* GEYSER       N/A       73  43  34 SW9        N/A
* JUDITH GAP   N/A       67  54  63 SW16       N/A
* LOMA         N/A       73  49  43 SW4        N/A
$$

MTZ017>020-022>027-061-062-100800-
NORTHEAST MONTANA
CITY           SKY/WX    TMP DP  RH WIND       PRES   REMARKS
GLASGOW        MOCLDY    70  54  57 SE14      29.72F
GLENDIVE       MOCLDY    72  54  53 S14       29.84F
JORDAN         CLOUDY    75  52  45 S12       29.76R
SIDNEY         PTCLDY    64  55  73 S5        29.83F
WOLF POINT     MOCLDY    72  54  53 SE6       29.76S
* BEAVER HILL  N/A       68  55  63 SE19G26    N/A
* CIRCLE       N/A       70  56  61 S7G12      N/A
* LINDSAY DVD  N/A       63  55  75 SE9        N/A
* NAVAJO       N/A       64  56  75 S6         N/A
* SACO         N/A       74  54  50 E11        N/A
$$

MTZ028>042-056>058-100800-
SOUTHCENTRAL AND SOUTHEAST MONTANA
CITY           SKY/WX    TMP DP  RH WIND       PRES   REMARKS
BAKER          MOCLDY    66  54  65 S21G28    29.90F
BILLINGS       LGT RAIN  75  54  48 SW7       29.87S
LIVINGSTON     CLOUDY    72  46  40 W6        29.99S
MILES CITY     CLOUDY    73  54  51 S15       29.82S
* LAUREL APT   CLOUDY    73  48  41 N/A        N/A
* ROUNDUP APT  CLOUDY    79  46  31 W21        N/A
* ALZADA       N/A       63  55  75 E9         N/A
* HYSHAM       N/A       78  50  38 S11G16     N/A
* LAME DEER    N/A       71  50  48 SE10G16    N/A
* REED POINT   N/A       76  49  39 SW6        N/A
* ROSCOE HILL  N/A       67  46  47 SW4G9      N/A
$$

REGIONAL REPORTS...DAKOTAS
CITY           SKY/WX    TMP DP  RH WIND       PRES   REMARKS
WILLISTON      CLEAR     72  55  55 S6        29.82F
DICKINSON      CLEAR     61  55  81 S14       29.89F
CROSBY         N/A       66  64  93 S14G23    29.81F
WATFORD CITY   CLEAR     68  55  63 S13G20    29.82F
BISMARCK       CLEAR     64  57  78 S7        29.94F
GRAND FORKS    CLEAR     55  52  90 S3        29.96S
FARGO          CLEAR     63  52  68 SE6       29.98S
BUFFALO SD     MOCLDY    63  54  73 SE16      29.88F
RAPID CITY     PTCLDY    61  55  81 S5        29.97F
$$

REGIONAL REPORTS...WYOMING/IDAHO/WASHINGTON
CITY           SKY/WX    TMP DP  RH WIND       PRES   REMARKS
GILLETTE       TSTM      68  59  73 S21G29    29.93F
SHERIDAN       CLOUDY    70  55  59 W7        29.88R
YELLOWSTONE LA MOCLDY    57  45  64 W3        30.23R
SALMON         MOCLDY    61  55  81 NE3       30.01F
MULLAN PASS    CLEAR     64  43  47 SW7       30.05S
SAND POINT     CLEAR     59  50  72 N3        29.78S
SPOKANE        PTCLDY    73  36  26 SW10      29.79S

$$



USA.gov is the U.S. government's official web portal to all federal, state and local government web resources and services.